DMSP 5D-2 F13 DEB, 42315

Orbit data source: Space-Track

DMSP 5D-2 F13 DEB, 42315 is space debris in SSO originally from a launch on Fri, 24 Mar 1995 UTC launched from the Air Force Western Test Range (AFWTR). Debris objects in space refer to the collection of defunct objects orbiting the Earth. Examples of debris include non-operational satellites, rocket bodies, and fragments generated from explosions, collisions, or faulty payload assembly.

Loading next visibility...
Identifier
42315, 1995-015JH
Orbit
SSO
Country
Flag of USUS
Related business
Manufacturer
Unknown
Mission
Spacecraft
Bus & Motor
Unknown
Mass
Unknown
Launch date (UTC)
1995-03-24 (31 years ago)
Launch vehicle
Unknown
Launch site
Air Force Western Test Range (AFWTR)
Object type
Payload
Rocket body
Debris
Shape & HBR
Unknown shape, 0.1 m
Radar Cross Section
Small (<0.1 m²)

Expand to show TLE details & history
Last TLE update: 1 week ago

TLE from 1 week ago
0 DMSP 5D-2 F13 DEB
1 42315U 95015JH  26128.91649095  .00005599  00000-0  13697-2 0  9993
2 42315  98.5540 187.6928 0020738 290.8642  69.0332 14.52798580562162
Epoch: 2026-05-08T21:59Z
TLE epoch observation values (Epoch: 2026-05-08T21:59:44.818Z)
Latitude
-0.00004°
Longitude
-8.98535°
Altitude
714.248 km
Speed
7.501 km/s
True Right ascension
12h 30m 46s
True Declination
0° 00' 00"
Sunlit
Object was in full shadow at epoch
Visualization orbit readout
Latitude
Unknown
Longitude
Unknown
Altitude
Unknown
Speed
Unknown
Apparent Right ascension
Unknown
Apparent Declination
Unknown
Sunlit
N/A
Visualization observer readout
Local Sidereal Time
18:51:28
Azimuth
Unknown
Elevation
Unknown
Doppler factor
Unknown
Orbital elements
Apogee altitude
728.337 km
Perigee altitude
698.923 km
Semi-major axis
7,091.767 km
Eccentricity
0.00207
Inclination
98.554°
RAAN
187.6928°
Arg. of periapsis
290.8642°
True anomaly
69.25531°
Mean anomaly
69.0332°
Eccentric anomaly
69.14423°
Mean motion
3.63422 °/min
Orbital period
99.06 mins
BSTAR
0.0013697
Loading maneuver chart data...
Computing Atmospheric mass density...

Documentation

Showing up to 5 results
|